| time (UTC) | temp C | wind direction | speed KPH | gust KPH | rain 1hr cm | rain 24hr cm | rain mn cm | humidity % | barometer mb |
| 20260504041505 | 13 | 153 | 0.0 | 0.0 | 0.00 | 0.00 | 0.00 | 70 | 1011.0 |
| 20260504040007 | 15 | 157 | 0.0 | 0.0 | 0.00 | 0.00 | 0.00 | 63 | 1011.2 |
| 20260504034507 | 15 | 158 | 0.0 | 0.0 | 0.00 | 0.00 | 0.00 | 61 | 1012.1 |
| 20260504033003 | 15 | 155 | 8.0 | 12.9 | 0.00 | 0.00 | 0.00 | 62 | 1011.3 |
| 20260504031503 | 15 | 155 | 8.0 | 12.9 | 0.00 | 0.00 | 0.00 | 62 | 1011.4 |
| 20260504030003 | 15 | 156 | 6.4 | 11.3 | 0.00 | 0.00 | 0.00 | 61 | 1011.4 |
| 20260504024505 | 15 | 155 | 8.0 | 12.9 | 0.00 | 0.00 | 0.00 | 61 | 1011.4 |
| 20260504023002 | 15 | 157 | 8.0 | 16.1 | 0.00 | 0.00 | 0.00 | 60 | 1011.4 |
| 20260504021502 | 16 | 155 | 6.4 | 14.5 | 0.00 | 0.00 | 0.00 | 56 | 1011.2 |
| 20260504020001 | 16 | 155 | 8.0 | 11.3 | 0.00 | 0.00 | 0.00 | 57 | 1011.1 |
| 20260504014600 | 16 | 155 | 6.4 | 12.9 | 0.00 | 0.00 | 0.00 | 56 | 1011.0 |
| 20260504013100 | 16 | 155 | 6.4 | 16.1 | 0.00 | 0.00 | 0.00 | 55 | 1011.0 |
| 20260504011559 | 16 | 155 | 8.0 | 14.5 | 0.00 | 0.00 | 0.00 | 54 | 1010.9 |
| 20260504010058 | 17 | 153 | 9.7 | 16.1 | 0.00 | 0.00 | 0.00 | 53 | 1011.0 |
| 20260504004557 | 17 | 155 | 11.3 | 19.3 | 0.00 | 0.00 | 0.00 | 51 | 1011.1 |
| 20260504003055 | 18 | 150 | 11.3 | 19.3 | 0.00 | 0.00 | 0.00 | 49 | 1011.2 |
| 20260504001553 | 18 | 156 | 11.3 | 19.3 | 0.00 | 0.00 | 0.00 | 47 | 1011.4 |
| 20260504000129 | 18 | 155 | 4.8 | 19.3 | 0.00 | 0.00 | 0.00 | 46 | 1011.8 |
| 20260503234552 | 19 | 154 | 14.5 | 24.1 | 0.00 | 0.00 | 0.00 | 45 | 1011.9 |
| 20260503233050 | 19 | 155 | 3.2 | 19.3 | 0.00 | 0.00 | 0.00 | 45 | 1012.0 |
| 20260503231550 | 19 | 152 | 16.1 | 30.6 | 0.00 | 0.00 | 0.00 | 44 | 1011.9 |
| 20260503230053 | 19 | 151 | 19.3 | 40.2 | 0.00 | 0.00 | 0.00 | 46 | 1011.7 |
| 20260503224547 | 19 | 154 | 20.9 | 33.8 | 0.00 | 0.00 | 0.00 | 44 | 1011.7 |
| 20260503223046 | 19 | 157 | 25.7 | 37.0 | 0.00 | 0.00 | 0.00 | 45 | 1011.5 |
| 20260503221544 | 19 | 154 | 27.4 | 41.8 | 0.00 | 0.00 | 0.00 | 44 | 1011.8 |
| 20260503220042 | 19 | 157 | 29.0 | 43.5 | 0.00 | 0.00 | 0.00 | 46 | 1011.8 |
| 20260503214539 | 18 | 155 | 27.4 | 45.1 | 0.00 | 0.00 | 0.00 | 47 | 1011.9 |
| 20260503213037 | 18 | 155 | 33.8 | 45.1 | 0.00 | 0.00 | 0.00 | 46 | 1012.4 |
| 20260503211533 | 18 | 153 | 32.2 | 48.3 | 0.00 | 0.00 | 0.00 | 48 | 1012.6 |
| 20260503210030 | 18 | 153 | 19.3 | 46.7 | 0.00 | 0.00 | 0.00 | 49 | 1013.1 |
| 20260503204528 | 18 | 156 | 25.7 | 48.3 | 0.00 | 0.00 | 0.00 | 51 | 1013.4 |
| 20260503203032 | 18 | 153 | 30.6 | 45.1 | 0.00 | 0.00 | 0.00 | 48 | 1014.2 |
| 20260503201523 | 18 | 155 | 19.3 | 40.2 | 0.00 | 0.00 | 0.00 | 51 | 1014.2 |
| 20260503200024 | 17 | 153 | 17.7 | 40.2 | 0.00 | 0.00 | 0.00 | 49 | 1014.8 |
| 20260503194518 | 18 | 155 | 19.3 | 40.2 | 0.00 | 0.00 | 0.00 | 52 | 1015.3 |
| 20260503193015 | 17 | 148 | 25.7 | 40.2 | 0.00 | 0.00 | 0.00 | 52 | 1015.6 |
| 20260503191512 | 17 | 155 | 20.9 | 35.4 | 0.00 | 0.00 | 0.00 | 50 | 1016.0 |
| 20260503190009 | 17 | 154 | 24.1 | 51.5 | 0.00 | 0.00 | 0.00 | 51 | 1016.1 |
| 20260503184512 | 17 | 156 | 29.0 | 38.6 | 0.00 | 0.00 | 0.00 | 48 | 1016.4 |
| 20260503183005 | 17 | 153 | 25.7 | 41.8 | 0.00 | 0.00 | 0.00 | 49 | 1016.7 |
| 20260503181505 | 17 | 153 | 24.1 | 43.5 | 0.00 | 0.00 | 0.00 | 53 | 1017.1 |
| 20260503180101 | 17 | 155 | 19.3 | 32.2 | 0.00 | 0.00 | 0.00 | 51 | 1017.4 |
| 20260503174557 | 16 | 148 | 22.5 | 38.6 | 0.00 | 0.00 | 0.00 | 52 | 1017.9 |
| 20260503173055 | 16 | 150 | 24.1 | 40.2 | 0.00 | 0.00 | 0.00 | 53 | 1018.3 |
| 20260503171609 | 16 | 154 | 19.3 | 35.4 | 0.00 | 0.00 | 0.00 | 55 | 1018.7 |
| 20260503081507 | 6 | 156 | 4.8 | 8.0 | 0.00 | 0.03 | 0.00 | 81 | 1020.1 |
| 20260503071505 | 6 | 156 | 4.8 | 8.0 | 0.00 | 0.03 | 0.00 | 76 | 1020.0 |
| 20260503054559 | 6 | 158 | 0.0 | 0.0 | 0.00 | 0.03 | 0.00 | 83 | 1020.4 |
| 20260503053049 | 5 | 158 | 0.0 | 0.0 | 0.00 | 0.03 | 0.00 | 85 | 1020.4 |
| 20260503051548 | 5 | 158 | 0.0 | 0.0 | 0.00 | 0.03 | 0.00 | 85 | 1020.4 |
| 20260503050048 | 5 | 159 | 0.0 | 0.0 | 0.00 | 0.03 | 0.00 | 85 | 1020.3 |
| 20260503044551 | 5 | 157 | 0.0 | 0.0 | 0.00 | 0.03 | 0.03 | 87 | 1020.4 |
| 20260503043048 | 5 | 162 | 0.0 | 0.0 | 0.00 | 0.03 | 0.03 | 89 | 1020.4 |